Regional Weather Roundup
Issued by NWS

Home | Current Version | Previous Version | Text Only | Print | Product List | Glossary Off
Versions: 1 2 3 4 5 6 7 8 9 10 11 12 13 14 15 16 17 18 19 20 21 22 23 24 25 26 27 28 29 30 31 32 33 34 35 36 37 38 39 40 41 42 43 44 45 46 47 48 49 50

000
ASUS43 KMKX 070159
RWRWI

WISCONSIN REGIONAL WEATHER ROUNDUP
NATIONAL WEATHER SERVICE MILWAUKEE/SULLIVAN WI
800 PM CST FRI MAR 06 2015

NOTE: "FAIR" INDICATES FEW OR NO CLOUDS BELOW 12,000 FEET WITH NO
SIGNIFICANT WEATHER AND/OR OBSTRUCTIONS TO VISIBILITY.

WIZ001-002-006>008-014>016-023>028-070300-
NORTHWEST WISCONSIN

CITY           SKY/WX    TMP DP  RH WIND       PRES   REMARKS
SUPERIOR ARPT  FAIR      27  10  49 SW7       29.99F WCI  19
ASHLAND        CLEAR     24   9  52 SW6       29.98F WCI  17
HAYWARD        CLEAR     20  10  65 SW5       29.99S WCI  13
SIREN          PTCLDY    27  12  53 W5        30.03S WCI  22
CUMBERLAND     PTCLDY    23  12  63 W8        30.02S WCI  14
RICE LAKE      PTCLDY    24  13  64 SW5       30.04S WCI  18
CHETEK         PTCLDY    27  15  58 CALM      30.03S
LADYSMITH      PTCLDY    24  13  63 SW3       30.02F
EAU CLAIRE     NOT AVBL
MENOMONIE      MOCLDY    29  17  59 W5        30.05S WCI  24
NEW RICHMOND   CLEAR     26  15  62 SW3       30.05S
OSCEOLA        PTCLDY    22  15  73 SW3       30.08S
$$

WIZ003>005-009-010-017-018-070300-
NORTH CENTRAL WISCONSIN

CITY           SKY/WX    TMP DP  RH WIND       PRES   REMARKS
MANITOWISH WTR CLEAR     16   8  71 CALM      29.94S
ARBOR VITAE    CLEAR     23  10  57 CALM      29.95S
WOODRUFF       CLEAR     23  10  57 CALM      29.95S
RHINELANDER    CLEAR     17   7  64 W6        29.96F WCI   9
EAGLE RIVER    CLEAR     20   7  57 CALM      29.94S
LAND O LAKES   CLEAR     15   7  71 CALM      29.94S
PHILLIPS       PTCLDY    20  10  65 SW3       29.97F
TOMAHAWK       CLEAR     24  11  58 CALM      29.98F
MEDFORD        PTCLDY    22  13  66 W5        30.00S WCI  16
MERRILL        CLEAR     22  12  65 W3        30.00S
$$

WIZ029-030-035-036-043>047-070300-
CENTRAL WISCONSIN

CITY           SKY/WX    TMP DP  RH WIND       PRES   REMARKS
WAUSAU         CLEAR     23  13  65 W6        30.00S WCI  16
MOSINEE        NOT AVBL
MARSHFIELD     MOCLDY    24  14  65 W6        30.02S WCI  17
STEVENS POINT  PTCLDY    27  14  58 W3        30.03S
WAUPACA        CLEAR     27  15  60 SW8       30.04R WCI  19
WAUTOMA        NOT AVBL
WISC RAPIDS    PTCLDY    28  14  55 SW6       30.05S WCI  22
CAMP DOUGLAS   NOT AVBL
$$

WIZ011>013-019>022-031-037>040-048>050-070300-
NORTHEAST WISCONSIN

CITY           SKY/WX    TMP DP  RH WIND       PRES   REMARKS
ANTIGO         CLEAR     21  12  68 W9        29.98S WCI  10
SHAWANO        FAIR      30  14  51 W3        30.03R
OCONTO         FAIR      24  14  65 SW3       30.03R
STURGEON BAY   CLEAR     21  12  68 SW12      30.04R WCI   9
GREEN BAY      CLEAR     22  14  71 S5        30.04R WCI  16
MANITOWOC      NOT AVBL
APPLETON       PTCLDY    25  12  58 SW12      30.04S WCI  14
CLINTONVILLE   CLEAR     25  14  63 W3        30.03S
OSHKOSH        CLEAR     23  14  68 SW8       30.05S WCI  14
$$

WIZ032>034-041-042-053>061-070300-
SOUTHWEST WISCONSIN

CITY           SKY/WX    TMP DP  RH WIND       PRES   REMARKS
LA CROSSE      MOCLDY    30  22  72 SW5       30.07S WCI  25
SPARTA         MOCLDY    26  19  75 CALM      30.07S
VIROQUA        MOCLDY    27  20  75 SW10      30.05S WCI  18
BOSCOBEL       MOCLDY    28  19  69 CALM      30.10S
PRAIRIE DU CHI MOCLDY    32  21  64 CALM      30.09S
PLATTEVILLE    MOCLDY    26  19  76 S6        30.09F WCI  19
$$

WIZ056-057-062-063-064-067-068-070300-
SOUTH CENTRAL WISCONSIN

CITY           SKY/WX    TMP DP  RH WIND       PRES   REMARKS
REEDSBURG      CLEAR     27  19  69 SW3       30.07S
BARABOO/DELLS  CLEAR     26  17  69 CALM      30.06F
LONE ROCK      NOT AVBL
MINERAL POINT  MOCLDY    30  21  69 S6        30.08S WCI  24
MADISON        MOCLDY    26  17  68 VRB3      30.10S
MIDDLETON      PTCLDY    28  17  64 SW3       30.09S
WATERTOWN      CLEAR     22  16  78 SW6       30.10S WCI  15
MONROE         PTCLDY    27  21  80 SW9       30.09S WCI  17
JANESVILLE     CLEAR     25  18  74 SW6       30.12R WCI  18
$$

WIZ051-052-058>065-066-070>072-070300-
SOUTHEAST WISCONSIN

CITY           SKY/WX    TMP DP  RH WIND       PRES   REMARKS
MILWAUKEE      PTCLDY    24  15  68 SW7       30.12R WCI  16
WAUKESHA       CLEAR     25  16  68 SW7       30.10S WCI  17
MILWAUKEE/TIMM CLEAR     25  16  68 SW8       30.11S WCI  16
RACINE         CLEAR     25  16  68 SW9       30.14S WCI  15
BURLINGTON     CLEAR     22  17  79 SW12      30.12R WCI  11
KENOSHA        CLEAR     25  17  72 SW14G23   30.12S WCI  13
FOND DU LAC    CLEAR     24  14  65 SW10      30.06S WCI  14
SHEBOYGAN      CLEAR     23  14  68 SW10      30.07F WCI  12
WEST BEND      CLEAR     25  16  68 SW8       30.08S WCI  16
JUNEAU         CLEAR     21  15  77 S7        30.09S WCI  12
$$

LSZ147-162-070300-
LAKE SUPERIOR

STATION/POSITION TIME  TEMP    WIND        PRES    WAVE
                       AIR SEA DIR/SP/G            HT/PER
                 (UTC) (F)     (DEG/KT/KT) (MB)    (FT/S)
DEVILS ISLAND    0100   29     240/ 12/ 13 1015.7R
PORT WING        0100   30     240/  7/  8 1015.6
SAXON HARBOR     0100   28     210/  2/  5 1015.6R
$$

LMZ867-665-643>646-070300-
LAKE MICHIGAN

STATION/POSITION TIME  TEMP    WIND        PRES    WAVE
                       AIR SEA DIR/SP/G            HT/PER
                 (UTC) (F)     (DEG/KT/KT) (MB)    (FT/S)
NORTHPORT PIER   0100   25     200/  3/ 10 1015.9R
SISTER BAY       0113   26     210/ 15/ 18   N/A
KEWAUNEE LAKESHO 0106   25     230/ 11/ 17 1016.5R
SHEBOYGAN LAKESH 0100   26     230/ 11/ 14 1020.2R
PORT WASHINGTON  0100   27     250/  9/ 17 1020.0
MILWAUKEE LAKESH 0100   27     240/ 15/ 17   N/A
KENOSHA   LAKESH 0100   26     210/  5/ 12 1020.7R
$$

TC  - TEMPERATURE IN CELSIUS
VSB - VISIBILITY IN STATUTE MILES
WCI - WIND CHILL INDEX
HX  - HEAT INDEX



USA.gov is the U.S. government's official web portal to all federal, state and local government web resources and services.